Starlink 32626

operational
NORAD ID: 62123 Int'l Des: 2024-222 Owner: SPXS Country: US Constellation: starlink
LEOCIRCULAR

Starlink 32626について

説明を読み込み中...

リアルタイム位置

3D地球を読み込み中...

次回通過

高度履歴

Altitude vs Time

uPlot chart will show altitude changes over time

軌道要素

1 62123U 24222K 25258.69673869 .00025204 00000-0 92135-3 0 9998
2 62123 43.0016 44.6622 0001213 272.3539 87.7174 15.27614049 45981
Epoch: Sep 15, 2025 • Age: 15 hours

現在のステータス

高度 483.6 km
速度 7.62 km/s
衛星直下点 -6.28°S, 117.34°E
打ち上げ日 Nov 27, 2024
運用期間 0.8 years
タイプ internet

技術仕様

分類 Payload
質量 730.00 kg
乾燥質量 700.00 kg
総質量 730.00 kg
長さ 0.30 m
直径 4.10 m
スパン 29.00 m
形状 Box + pan
製造者 SPXS
バスタイプ Starlink V2M
フェーズステータス In Orbit
所有者/国 SPXS/US

大規模コンステレーション

Loading constellations...